Theta_e
290 289 289 289 288 288 288 288 288 288 288 288 287 287 288 288 288 288 288 288 288 288 287 287 286 286 285 285 284 284 284 284 284 284 284 284 284 284 283 282 281 281 280 279 278 277 277 278 278 277 277 277 277 277 277 278 278 279 280 280 280 280 281 281 282 282 283 283 284 285 286 287 289 290 292 293 295 297 298 298 297 297 298 301 304
290 289 289 288 288 288 288 288 288 288 288 287 287 287 288 288 288 288 288 288 288 287 287 286 286 285 285 284 284 284 284 284 285 284 284 285 284 284 283 282 281 280 280 279 278 276 276 276 276 276 276 276 276 276 276 277 278 278 279 279 279 279 280 280 281 281 282 282 283 284 285 286 288 289 291 293 295 297 298 298 297 297 298 298 300
289 289 288 288 288 288 288 288 288 288 287 287 287 287 288 288 288 288 288 288 287 287 287 286 286 285 284 284 284 284 284 284 284 284 284 284 284 284 283 281 280 279 279 278 276 274 275 275 274 275 275 275 275 275 275 276 277 277 278 278 278 278 279 279 279 280 280 281 282 283 283 284 287 290 291 293 296 297 298 298 298 298 298 297 298
289 289 288 288 288 288 288 288 288 287 287 287 287 287 288 288 288 288 287 287 287 287 286 286 285 284 284 284 284 284 284 284 284 284 284 284 284 284 283 281 280 279 278 276 274 273 273 273 273 273 274 274 274 274 275 275 276 277 277 277 277 278 278 278 278 279 279 280 281 282 283 284 287 290 291 293 296 297 297 297 298 299 299 298 298
289 288 288 288 288 288 288 288 287 287 287 287 287 287 288 288 288 288 287 287 287 286 286 285 284 284 284 284 284 284 284 284 284 284 284 284 283 283 283 281 279 278 276 274 272 271 271 271 271 272 273 273 273 273 274 275 275 276 276 277 277 277 277 277 277 278 279 280 281 283 284 285 287 289 291 292 295 297 297 296 296 297 298 298 298
289 288 288 288 288 288 288 288 287 287 287 287 287 288 288 288 288 287 287 287 286 286 285 284 284 284 284 284 284 284 284 284 284 284 283 283 283 282 281 279 276 274 273 271 270 270 270 270 271 271 271 272 272 273 273 274 274 275 276 276 276 276 277 277 277 277 278 280 282 283 284 286 288 290 291 293 295 297 297 296 295 296 298 297 297
288 288 288 288 288 288 288 287 287 287 287 287 288 288 288 288 287 287 287 286 286 285 285 284 284 283 283 284 284 284 284 284 283 283 283 282 282 281 278 276 273 271 271 270 270 270 270 270 271 271 271 271 272 272 273 273 274 274 275 275 276 276 276 276 277 277 278 280 281 282 284 286 288 290 292 294 296 297 296 295 295 296 297 298 297
288 288 287 287 288 287 287 287 287 287 287 287 288 288 287 287 287 286 286 286 285 285 284 283 283 283 283 283 284 284 283 283 283 282 282 281 281 279 275 273 271 271 271 271 271 271 271 271 271 271 271 272 272 273 273 273 274 274 275 275 276 276 276 276 277 277 278 279 281 283 285 287 289 290 292 294 296 296 296 295 296 297 298 299 298
288 288 287 287 287 287 287 287 287 287 287 287 287 287 287 287 286 286 286 285 285 284 283 283 283 283 283 283 283 283 283 283 282 281 281 280 279 276 273 271 271 271 271 271 271 271 272 272 272 272 272 272 273 273 274 274 274 275 275 275 276 276 276 276 277 277 278 279 281 282 284 286 289 291 293 294 296 296 296 295 296 298 299 300 299
288 287 287 287 287 287 287 287 287 287 287 287 287 287 287 286 286 286 286 285 284 283 283 283 283 283 283 283 283 283 282 282 281 281 280 279 277 274 272 271 271 271 271 271 271 271 272 272 273 273 273 273 274 274 274 275 275 276 276 276 277 277 277 277 277 278 278 279 281 282 283 285 288 290 293 295 295 296 296 295 296 297 298 299 299
287 287 287 287 287 287 287 287 287 287 287 287 287 287 286 286 286 286 285 284 283 283 282 282 282 283 283 283 283 282 282 281 281 280 280 278 276 273 272 271 271 271 272 272 272 272 272 272 273 273 274 274 274 275 275 275 276 276 277 277 277 278 278 278 278 279 279 280 281 282 283 284 286 289 292 294 295 295 296 296 296 297 297 298 298
287 287 287 287 287 287 287 287 287 287 287 287 287 286 286 286 286 285 285 284 283 282 282 282 282 282 282 282 282 282 281 281 280 280 280 278 275 272 271 272 272 272 272 272 272 272 273 273 273 274 274 275 275 275 276 276 276 276 277 277 278 278 278 279 279 279 280 280 281 282 283 284 285 287 290 293 294 294 295 295 296 295 296 296 296
287 287 287 287 287 287 287 287 287 287 287 287 286 286 286 286 286 285 284 283 282 282 282 282 282 282 282 282 281 281 281 280 280 280 279 278 274 272 272 272 272 272 273 272 273 273 273 273 273 274 274 275 275 276 276 277 277 277 277 277 278 278 278 279 279 279 280 280 281 282 283 284 285 286 289 292 293 293 294 294 295 295 295 295 295
287 287 287 287 287 287 287 287 287 287 287 287 286 286 286 285 285 285 284 283 282 281 282 282 282 282 281 281 281 280 280 280 280 280 280 278 274 272 272 272 272 272 272 272 272 272 273 273 274 274 274 275 276 276 277 277 277 277 277 277 278 278 278 279 279 279 279 280 280 281 282 283 285 286 288 290 292 293 293 293 293 294 294 294 295
287 287 287 287 287 287 287 287 287 287 287 286 286 285 285 285 285 284 283 282 281 281 281 281 281 281 281 281 280 280 280 280 280 280 280 278 274 272 272 272 272 272 272 272 272 272 273 273 273 274 274 274 275 276 276 277 278 278 278 278 278 279 279 279 279 279 279 279 280 281 282 284 285 286 287 289 290 291 292 292 292 293 293 294 294
287 287 287 287 287 287 287 287 287 287 286 285 285 285 285 285 284 284 283 282 281 281 281 281 281 281 281 280 279 280 280 279 279 280 279 276 273 272 272 272 272 272 272 272 272 272 272 272 273 273 273 274 274 275 276 277 278 278 278 279 279 279 279 280 280 279 279 279 280 282 283 285 286 287 287 288 290 291 291 291 292 292 293 293 293
287 287 287 287 287 287 287 287 287 286 285 285 285 285 284 284 284 283 282 281 281 281 280 280 280 280 280 279 279 279 280 279 279 279 277 274 272 272 272 272 273 272 272 272 272 272 272 272 273 273 273 274 274 275 276 276 277 277 278 279 279 280 280 280 280 280 280 280 280 282 283 285 286 288 288 289 289 290 290 291 291 292 292 292 293
287 287 287 287 287 287 287 287 286 286 285 285 285 285 284 283 283 283 282 281 280 280 280 280 280 280 279 279 279 279 279 279 278 278 275 272 272 272 272 273 273 273 273 273 273 273 273 273 273 273 273 274 274 275 276 276 277 278 278 279 280 280 280 281 281 281 280 280 281 283 284 286 287 288 289 289 290 290 291 292 292 292 292 292 293
287 287 287 287 287 287 287 286 286 285 284 284 284 284 283 283 283 282 281 280 280 280 279 279 279 279 279 279 279 279 279 278 278 276 273 272 272 273 273 273 273 273 273 273 274 274 274 274 274 274 274 274 275 276 276 277 277 278 278 279 279 280 281 281 281 281 281 281 282 284 286 287 288 289 290 290 290 291 291 292 292 292 292 292 293
287 287 287 287 287 287 286 286 285 284 284 284 284 283 283 283 283 282 280 280 279 279 279 279 279 278 278 278 279 278 277 277 276 274 272 272 272 273 273 274 274 274 274 274 274 274 274 274 274 274 274 275 275 276 277 277 277 278 278 279 279 280 280 281 281 282 282 282 282 284 285 287 288 289 290 290 291 291 291 291 291 291 292 292 293
287 287 287 287 287 286 286 285 284 284 284 284 283 283 282 283 282 281 280 279 279 278 278 278 278 278 277 278 278 277 275 275 275 274 273 272 272 273 274 274 274 274 274 274 274 274 274 274 274 274 274 275 275 276 276 277 277 277 278 278 279 279 280 281 282 282 282 282 283 283 284 286 287 288 289 290 290 290 290 291 291 291 292 292 293
287 287 287 287 286 286 286 285 284 283 283 283 283 282 282 282 281 280 279 279 278 278 277 277 277 277 277 277 277 276 274 273 273 273 272 272 272 273 274 274 274 274 274 274 273 273 273 273 273 273 274 274 275 275 276 276 277 277 278 278 278 279 280 281 282 283 283 283 284 284 285 286 287 288 289 289 290 290 290 291 291 292 292 293 293
286 286 286 286 286 286 285 284 283 283 283 283 282 281 281 281 280 279 279 278 278 277 277 276 276 277 277 276 275 274 273 272 272 272 271 272 273 273 274 274 273 273 273 273 273 273 273 273 273 273 274 275 276 276 277 277 278 278 278 278 279 280 281 282 282 283 284 284 285 285 285 286 287 288 288 289 289 290 290 291 291 292 292 293 293
286 286 286 286 286 285 284 284 283 283 283 282 281 281 280 280 279 279 278 277 277 277 276 276 276 276 275 274 274 273 272 271 271 271 271 272 273 273 273 273 272 272 272 272 272 272 272 272 273 273 274 275 275 276 277 278 278 278 279 279 280 281 281 282 283 284 284 285 285 285 286 287 287 288 288 289 289 289 290 290 291 291 292 293 293
286 286 286 286 286 285 284 283 283 282 282 281 280 280 279 279 279 278 277 276 276 276 275 275 275 275 273 272 272 272 271 270 270 270 271 272 272 272 272 271 271 271 271 272 272 272 271 272 272 273 274 275 276 276 277 278 278 278 279 280 280 281 281 282 283 284 285 286 286 286 286 287 287 288 288 289 289 289 290 290 290 291 292 292 293
286 286 286 286 285 284 283 283 282 282 281 280 279 279 278 278 278 277 276 276 275 275 275 275 274 273 271 270 270 270 270 270 270 270 271 271 271 271 271 270 270 270 270 271 271 271 271 272 273 274 274 275 276 276 277 278 278 279 279 280 281 281 282 283 283 284 285 286 286 287 287 287 288 288 288 289 289 289 289 289 290 291 291 292 292
286 287 286 285 284 283 283 282 281 281 280 279 279 278 278 278 278 277 276 275 274 274 274 274 272 271 270 269 269 269 270 270 270 271 271 271 271 271 270 269 269 269 270 270 270 270 271 272 273 274 274 275 276 277 277 278 278 279 279 280 281 282 283 284 285 285 285 286 286 287 287 287 288 288 288 289 289 289 289 290 290 291 292 292 293
286 286 285 284 283 283 282 281 280 280 279 279 278 278 278 278 277 276 275 274 274 274 273 272 271 269 269 269 268 269 269 270 270 270 271 271 271 270 269 269 269 269 269 270 270 270 272 273 273 273 273 274 276 277 277 278 278 279 280 281 282 284 284 285 286 286 286 286 286 287 287 287 288 288 288 289 289 289 290 290 291 292 292 293 294
286 285 284 283 283 282 281 280 279 278 278 278 278 277 277 277 276 275 274 274 273 273 272 271 271 270 269 268 269 269 269 270 270 270 270 270 270 270 269 269 269 269 269 270 270 271 272 272 272 272 272 272 273 274 275 276 277 278 280 281 282 283 284 285 286 286 287 287 287 287 287 287 288 289 289 289 290 290 290 291 291 292 293 294 295
286 284 283 283 282 281 280 279 278 277 278 277 277 277 277 277 276 275 274 273 272 272 271 271 271 270 269 269 269 269 269 269 270 270 270 270 270 269 269 269 270 269 269 270 271 271 271 271 271 270 270 270 271 272 272 273 274 276 278 279 280 282 283 284 285 285 286 287 287 287 287 287 288 289 289 290 290 290 291 291 292 293 294 295 296
285 284 283 282 282 280 279 278 277 277 277 277 276 276 277 277 276 274 273 273 272 271 271 271 271 271 270 270 270 270 269 269 270 270 269 269 270 270 269 270 270 270 269 271 272 271 270 270 270 269 269 269 270 270 270 271 272 273 275 277 278 279 281 282 283 284 285 286 287 287 288 288 289 289 290 290 290 291 291 291 292 293 294 295 297
285 284 283 282 281 280 278 278 277 277 277 276 276 276 276 275 274 272 271 271 271 271 271 271 271 271 271 271 271 271 270 270 270 270 270 270 270 270 270 270 271 271 271 272 272 271 270 269 269 269 269 269 269 270 270 270 271 271 272 274 276 277 278 280 281 283 284 286 286 287 288 289 290 290 290 290 290 291 291 292 293 294 295 296 298
284 284 283 281 280 279 278 277 277 277 276 276 276 276 276 274 273 272 271 270 271 271 270 271 271 271 271 271 271 271 270 270 271 271 270 270 270 271 271 271 271 271 271 272 271 270 269 269 268 268 268 268 269 269 269 270 270 271 271 272 274 275 276 278 279 281 283 285 286 287 288 289 290 290 291 291 291 291 292 293 294 295 296 298 299
282 282 281 280 280 279 277 277 276 276 276 275 276 276 275 274 273 272 272 271 271 270 270 270 271 271 271 271 271 271 271 270 270 270 270 270 270 271 272 273 272 271 271 270 270 269 269 269 268 268 268 268 269 269 269 269 270 270 271 271 272 273 275 276 278 279 281 283 285 286 288 289 289 290 291 292 292 292 293 293 295 296 297 299 300
280 279 279 279 279 278 277 276 276 276 275 275 275 275 275 273 272 271 271 271 271 271 271 271 271 271 271 271 271 271 270 270 270 270 270 270 270 271 272 273 273 272 271 270 270 269 268 268 268 268 268 268 269 269 269 269 270 270 270 270 271 272 274 276 277 278 279 281 282 285 287 288 289 290 291 292 292 292 293 294 295 297 298 300 301
280 279 279 278 278 277 276 276 275 275 275 275 275 275 273 272 272 271 271 270 270 270 270 270 270 270 270 270 270 271 270 269 269 270 270 269 270 271 271 272 271 271 270 270 270 269 269 268 268 268 268 269 269 269 269 269 269 270 270 270 270 271 272 274 275 275 277 279 281 283 285 287 289 290 291 292 293 293 294 295 296 298 299 301 302
280 279 279 278 277 276 276 275 275 275 274 274 274 274 272 271 271 271 270 270 270 269 270 270 270 270 270 270 270 271 270 269 269 269 270 270 270 270 270 270 270 270 269 269 269 269 269 269 268 269 269 269 269 269 269 269 269 270 270 270 270 270 271 271 272 273 274 277 279 282 284 286 289 290 291 292 294 294 295 296 297 299 300 302 303
278 278 278 278 277 276 275 275 275 274 274 274 273 273 272 271 271 270 270 270 269 269 269 270 270 270 270 270 270 270 269 268 269 270 270 270 270 269 269 269 269 269 269 268 268 269 269 269 269 269 269 269 269 269 269 269 269 269 270 270 270 270 270 270 270 271 273 275 278 281 283 286 288 290 292 293 294 295 296 297 298 300 301 303 304
276 276 276 276 276 275 275 275 274 274 273 273 273 272 271 270 270 270 270 269 269 269 269 269 269 269 269 269 269 269 268 268 269 269 269 269 269 269 269 269 269 269 269 269 268 268 269 269 269 269 269 269 269 269 269 269 269 269 270 270 270 270 270 270 270 270 272 275 278 281 283 285 287 289 291 293 295 296 297 298 299 300 302 303 305
277 277 276 276 275 275 275 274 274 273 273 273 272 271 271 270 270 270 269 269 269 269 269 269 269 269 269 268 269 268 267 267 268 268 268 268 268 268 268 268 268 269 269 268 268 268 269 269 269 269 269 269 269 269 269 269 269 269 269 270 270 270 270 269 269 270 272 275 278 280 282 284 286 288 291 294 296 297 298 299 299 300 301 303 305
278 277 276 275 275 275 274 274 273 273 272 272 272 271 270 270 270 269 269 269 269 269 269 269 269 269 268 268 268 267 267 267 267 267 267 268 268 268 268 268 268 268 268 268 268 268 269 269 269 269 269 269 269 269 269 269 269 269 269 269 270 270 269 269 270 270 271 274 276 279 281 283 285 287 291 294 295 297 298 299 299 300 301 303 304
278 277 276 276 275 275 274 273 272 272 272 272 271 270 270 270 270 269 269 269 269 269 269 268 268 268 268 268 268 267 267 267 267 267 267 267 268 268 268 268 268 268 268 268 268 268 268 268 269 269 269 269 269 269 269 269 269 269 269 269 270 269 269 270 270 271 272 273 275 278 280 282 284 287 290 293 295 296 298 299 300 300 301 302 303
276 276 276 276 275 274 273 272 272 272 272 271 271 270 270 270 269 269 269 269 269 269 269 268 268 268 268 268 268 267 267 267 267 267 268 267 267 267 267 267 267 268 268 268 268 268 268 268 269 269 269 269 269 269 269 269 269 269 269 269 269 269 269 270 271 272 273 274 275 277 279 282 285 288 291 293 295 296 297 298 299 300 301 301 302
276 276 275 275 274 273 272 272 272 272 271 271 270 270 270 269 269 269 269 269 269 269 269 269 268 268 268 268 268 268 268 268 268 268 268 268 267 267 267 267 267 268 268 268 268 268 268 268 269 269 269 269 269 269 269 269 269 269 269 270 269 269 269 270 270 271 273 274 275 277 279 282 285 288 291 293 294 295 296 298 299 300 300 301 302
275 276 275 274 273 272 272 272 272 271 271 270 270 270 269 269 269 269 269 269 269 269 269 269 269 268 268 268 268 268 268 268 268 268 268 268 268 267 267 267 267 267 268 268 268 268 269 269 268 269 269 269 269 269 269 269 269 269 269 270 269 269 269 269 270 271 272 273 275 277 279 282 285 289 291 292 294 295 296 297 298 299 300 300 301
275 275 274 274 273 272 272 272 271 271 270 270 270 269 269 269 269 269 269 269 269 269 268 268 268 268 268 268 268 268 268 268 268 268 268 268 268 267 267 267 267 267 267 268 268 268 268 268 268 268 268 268 269 269 269 269 269 269 269 270 270 269 269 270 271 272 272 273 275 277 279 282 285 288 290 292 293 294 295 296 297 299 300 300 301
274 274 273 273 272 272 272 271 271 270 270 270 269 269 269 269 269 269 269 268 268 268 268 268 268 268 268 268 268 268 268 268 268 268 268 268 268 267 267 267 267 267 267 267 268 268 268 268 268 268 269 269 269 269 269 269 269 269 269 270 270 270 271 271 272 273 273 274 275 277 279 281 284 286 289 291 292 293 294 295 297 298 299 300 300
273 273 272 272 272 272 271 271 270 270 270 270 269 269 269 269 269 268 268 268 268 268 268 268 268 268 268 268 268 268 268 268 268 268 268 268 268 268 268 267 268 268 267 267 267 268 268 268 268 269 269 269 268 268 269 269 269 269 269 269 270 271 272 272 273 274 274 275 276 277 279 281 283 285 288 290 291 293 294 295 296 297 298 299 300
272 272 272 272 271 271 271 270 270 270 270 269 269 269 269 269 268 268 268 268 268 268 268 268 268 268 268 268 268 268 268 268 269 269 268 268 268 268 268 268 268 268 268 268 267 267 268 268 268 269 269 269 268 268 268 269 269 269 269 269 269 271 272 273 273 275 276 276 277 278 279 281 283 284 286 288 291 292 293 294 295 296 298 298 299
272 272 271 271 270 270 270 270 270 270 269 269 269 269 269 268 268 268 268 268 268 268 268 268 268 268 268 268 268 268 268 269 269 269 269 268 268 268 268 268 268 268 268 268 268 267 268 268 268 268 269 269 269 268 268 268 269 269 269 269 269 270 272 273 274 275 276 277 277 277 278 280 282 284 285 288 290 292 293 294 295 296 297 298 298
271 271 270 270 270 270 270 270 270 269 269 269 269 269 268 268 268 268 268 268 268 268 268 268 268 268 268 268 268 268 269 269 269 269 269 269 268 269 269 269 269 268 268 268 268 268 268 268 268 268 269 269 269 269 268 268 268 269 269 269 269 269 270 272 273 274 276 277 277 277 278 280 281 282 284 286 288 290 292 293 294 295 296 297 298
Wind_Speed
41 38 34 31 28 25 23 21 20 19 19 18 19 20 21 22 23 25 27 29 32 34 36 37 37 37 37 36 35 35 36 37 38 40 41 42 44 45 45 44 45 46 45 44 43 44 44 41 42 41 39 41 40 35 35 35 35 36 35 35 37 37 39 41 46 56 57 49 45 42 42 46 51 54 54 52 51 48 44 44 47 47 43 39 41
42 38 34 31 28 25 24 22 21 20 19 19 19 20 21 23 24 26 28 30 32 34 35 36 36 36 35 35 35 36 37 38 39 40 42 43 44 46 46 45 46 46 47 48 47 43 39 38 41 39 35 39 40 36 36 36 35 37 37 37 38 38 38 38 41 49 53 52 47 40 40 45 51 55 54 53 52 46 42 43 44 43 42 41 43
42 38 34 31 29 26 24 22 21 20 19 19 20 20 21 23 25 27 29 31 32 34 35 35 35 34 34 34 35 36 37 38 40 40 42 44 45 47 47 45 44 45 47 48 47 42 37 36 39 38 33 35 36 35 35 36 36 37 37 37 36 38 38 36 38 45 51 57 55 47 50 55 54 54 51 49 48 43 40 42 41 40 40 41 43
42 38 35 32 30 27 25 23 21 20 20 19 20 21 22 24 26 27 29 31 32 33 34 33 33 33 33 34 35 37 37 38 40 41 42 44 46 46 46 45 44 44 45 46 43 39 36 35 37 36 34 34 35 34 35 35 35 35 36 36 35 37 37 34 36 40 43 50 51 46 51 56 54 54 50 47 47 43 40 40 39 38 39 40 42
42 38 35 33 30 28 25 23 22 20 20 19 20 21 22 24 26 27 29 30 32 32 32 32 32 32 33 34 35 36 37 38 40 41 43 44 45 46 46 45 44 43 43 43 41 38 36 36 36 34 33 35 35 35 35 34 34 35 35 35 34 34 34 34 37 40 41 46 46 41 43 47 50 53 52 49 46 40 39 41 40 39 40 41 42
42 39 36 34 31 28 26 23 22 21 19 20 20 21 23 24 25 27 28 30 31 31 31 31 31 32 32 33 35 36 37 39 40 42 43 44 44 45 44 42 40 40 41 40 40 39 38 37 37 34 33 35 36 35 34 34 35 35 36 36 35 34 34 36 39 40 41 45 43 41 42 43 42 46 50 48 41 36 37 41 41 40 41 42 43
43 40 37 34 31 28 26 23 22 20 19 19 20 21 23 24 25 27 28 29 30 30 30 30 31 31 32 33 35 36 38 40 41 41 42 43 44 43 42 40 39 39 41 42 41 41 41 40 38 35 34 35 36 36 35 35 35 36 36 36 35 35 35 37 39 38 40 43 43 43 44 43 42 45 46 41 35 34 36 37 39 40 40 40 41
43 40 37 34 31 28 26 23 21 20 19 20 20 21 22 23 24 26 27 28 28 28 29 30 30 31 32 33 34 37 39 40 40 41 42 43 43 41 39 39 40 40 41 42 42 40 40 41 41 39 38 37 37 38 37 36 35 35 35 34 33 34 34 35 37 37 38 42 42 40 38 36 40 44 41 35 33 34 33 32 34 38 38 37 39
44 41 38 35 31 28 26 23 21 19 19 20 20 21 21 22 24 26 27 27 27 28 28 29 30 31 32 33 35 37 39 39 39 40 41 41 40 38 37 36 37 38 39 38 38 37 37 39 40 41 41 41 40 40 39 38 37 37 37 35 34 35 36 36 37 37 38 39 39 38 37 35 36 38 38 35 30 29 30 30 31 33 33 35 38
44 41 38 34 31 28 25 22 20 19 19 20 20 20 21 22 24 25 26 26 26 27 27 28 30 31 32 34 35 37 38 38 39 39 38 38 36 35 36 37 37 38 38 38 38 37 37 37 38 39 40 42 41 40 40 40 40 40 40 40 39 40 41 41 41 40 39 38 35 34 37 39 37 34 34 32 24 22 27 29 29 31 31 33 38
44 41 37 34 30 27 24 21 19 19 19 19 19 19 20 22 23 24 25 25 25 26 27 28 29 31 33 34 35 37 37 37 37 38 36 34 33 33 35 37 38 38 38 38 38 38 37 37 38 38 38 39 40 39 40 40 40 41 41 42 42 43 43 44 44 43 41 40 37 34 36 42 42 35 30 28 22 20 23 25 26 29 29 29 35
44 40 36 33 29 26 23 20 19 19 19 18 18 19 20 21 23 23 24 24 25 25 26 27 29 30 32 34 35 36 36 36 36 36 36 33 30 30 33 36 38 39 39 38 38 38 38 38 37 37 37 37 37 38 39 39 39 39 40 40 41 42 43 44 45 44 43 41 40 38 37 41 45 40 30 26 24 22 21 24 27 29 30 31 33
43 39 35 32 28 25 22 20 19 19 18 18 18 18 19 21 22 22 23 23 24 24 25 27 28 30 32 34 35 36 35 35 35 34 35 33 28 28 32 35 38 38 38 38 37 37 37 38 38 37 36 36 36 36 37 38 38 39 39 40 41 41 42 43 45 46 47 46 45 44 42 39 42 44 35 26 25 26 24 26 29 30 32 35 37
42 38 34 30 27 24 21 20 19 18 17 17 17 18 19 20 21 21 22 23 24 24 25 26 27 28 31 33 35 35 34 34 34 33 33 31 28 29 33 35 36 36 35 35 36 36 36 37 38 38 37 36 35 35 36 38 39 40 40 41 42 42 42 42 42 43 46 47 46 47 47 43 42 45 41 31 28 28 27 29 32 32 34 38 41
41 37 33 29 26 23 21 19 18 17 16 16 16 17 19 19 19 21 22 23 24 24 25 26 27 28 29 32 34 34 33 32 32 32 33 30 28 29 32 33 34 34 34 34 35 36 36 37 38 39 39 38 36 35 36 37 39 41 42 44 47 47 47 46 44 42 43 45 44 43 44 44 44 47 45 39 34 31 31 32 33 34 36 40 42
40 36 32 28 25 22 20 19 18 16 15 15 16 17 18 18 18 20 22 23 23 24 25 25 26 28 29 31 34 33 31 30 30 32 32 30 29 31 33 34 35 35 36 36 35 35 35 36 38 39 39 39 38 37 37 37 39 42 44 47 49 50 50 48 45 43 43 44 43 42 40 39 41 43 42 40 38 36 34 35 36 36 36 40 43
39 35 31 27 24 22 20 18 17 15 14 15 16 16 16 16 18 20 22 23 23 24 25 25 26 27 29 30 32 33 32 31 31 33 32 29 30 33 34 34 35 37 38 36 34 34 34 35 36 38 39 40 39 38 38 38 40 44 45 47 48 49 49 47 44 42 43 43 42 42 40 37 38 41 41 41 40 38 36 36 36 34 32 36 41
38 34 30 27 23 21 19 17 15 14 14 14 15 15 15 15 18 21 23 23 23 23 25 25 25 26 28 29 30 31 32 31 30 32 31 28 30 33 34 36 38 41 43 42 40 37 36 36 37 38 41 41 39 39 38 38 41 44 44 44 46 47 46 46 45 42 41 41 38 38 37 36 37 40 41 41 38 35 33 33 33 33 31 34 39
37 33 29 25 23 20 18 16 14 13 13 14 14 13 14 15 18 21 23 24 23 23 24 25 26 26 27 29 29 29 31 31 31 32 30 29 30 32 35 40 43 45 46 47 48 45 40 38 37 37 38 39 39 39 38 38 40 42 43 43 44 44 42 43 45 44 41 38 34 33 33 31 33 36 39 40 38 35 34 33 32 33 33 35 37
36 32 28 24 22 19 16 14 13 12 13 13 12 12 13 15 19 22 23 23 23 23 24 25 26 26 27 28 29 29 31 32 32 32 30 29 30 31 35 39 43 45 45 46 47 45 41 37 35 34 36 37 39 39 39 39 40 42 42 41 42 43 41 40 42 42 41 37 34 34 33 30 29 31 33 35 36 36 36 36 37 36 33 34 36
34 31 27 23 20 17 14 13 12 12 12 11 12 12 13 16 20 22 22 23 22 23 23 25 26 27 27 28 29 29 30 32 33 32 31 30 30 32 35 37 39 42 44 43 42 40 39 37 36 35 36 37 39 40 40 41 40 41 41 41 41 42 40 40 40 39 37 36 35 36 34 30 29 29 30 32 34 35 36 38 39 36 33 35 37
32 29 25 21 18 15 13 12 12 12 11 10 10 12 13 16 20 22 22 22 22 22 23 24 26 27 27 27 30 31 30 31 32 33 32 31 31 32 34 35 37 40 42 42 40 38 37 37 37 36 37 39 40 42 42 42 40 40 41 41 41 40 38 38 40 38 35 32 31 33 32 29 28 28 30 33 34 34 36 39 39 37 35 37 39
30 26 23 18 15 13 12 12 12 11 10 9 10 12 13 16 20 22 22 21 21 22 23 24 26 28 28 29 30 31 31 31 32 32 31 31 32 33 33 34 36 38 38 38 37 36 36 37 38 39 40 41 42 44 44 43 42 41 40 39 38 37 36 38 40 37 34 32 30 30 30 29 28 28 29 34 35 34 36 39 38 37 37 39 41
28 24 20 17 14 12 12 12 13 11 8 8 9 11 12 15 19 21 20 20 20 21 23 24 26 28 29 30 31 31 31 32 33 32 31 31 33 33 33 35 37 36 34 34 34 34 36 39 41 42 41 40 40 41 40 39 39 39 38 38 38 37 38 39 39 36 33 33 32 31 30 30 30 29 30 33 34 34 36 37 36 36 37 40 43
27 23 19 16 14 13 13 13 12 9 7 7 9 10 11 15 19 20 19 18 19 21 22 23 25 27 28 30 31 31 32 32 32 32 31 31 33 33 33 37 40 36 32 32 32 33 38 42 42 40 37 35 35 34 31 30 31 32 32 32 33 34 36 36 36 34 33 33 33 33 33 32 31 31 31 32 31 32 34 35 35 36 37 40 44
26 22 19 16 14 14 14 13 11 8 6 6 8 9 11 15 18 18 17 16 17 20 21 22 24 26 27 29 30 31 33 31 29 32 33 34 35 34 35 41 42 36 31 30 32 37 40 40 38 35 33 30 28 27 24 24 25 25 25 26 27 30 33 34 33 33 33 33 33 33 33 31 31 32 32 33 33 34 36 36 36 36 37 40 44
26 22 19 17 15 14 14 12 9 6 5 6 8 9 11 14 17 16 15 15 16 18 20 22 23 24 26 27 28 30 31 28 28 33 35 36 37 37 39 42 42 36 32 32 35 39 39 35 32 31 29 27 24 22 20 19 20 20 20 20 21 24 27 31 33 33 34 34 33 33 32 30 30 33 34 35 35 37 37 36 36 36 37 39 41
24 21 19 17 15 15 14 11 7 5 5 6 8 9 11 13 16 15 14 15 17 19 19 20 21 22 23 25 26 27 28 27 29 33 34 35 36 37 39 40 38 35 34 33 35 35 32 30 30 30 30 29 26 23 22 21 20 20 20 20 21 21 21 23 28 32 35 36 35 34 33 32 32 34 35 35 36 37 36 35 35 36 36 37 39
24 21 19 17 16 15 12 9 6 5 5 7 7 8 10 13 13 13 13 13 15 17 17 18 20 20 20 21 23 25 27 28 30 31 31 32 33 33 36 36 34 33 33 31 30 31 30 30 32 34 36 36 34 32 30 28 26 24 23 22 21 21 18 16 19 25 31 35 37 37 35 34 34 34 33 33 35 36 34 32 32 34 34 35 38
24 22 20 17 15 14 12 9 7 6 6 7 7 8 10 12 11 9 10 11 13 13 14 15 17 18 18 18 19 20 23 26 28 28 29 30 30 30 31 30 28 30 31 29 28 29 31 33 36 38 40 41 40 39 38 36 35 32 28 26 24 23 21 17 15 18 21 26 32 36 37 36 35 34 32 32 32 34 33 31 31 33 34 35 38
25 22 20 18 16 14 12 10 9 7 6 6 7 8 10 12 11 9 9 9 10 11 12 13 14 15 16 17 18 18 20 22 24 25 27 28 29 29 29 27 26 28 29 29 28 30 33 36 38 40 42 42 42 42 42 41 40 37 34 31 29 26 25 22 19 18 19 20 24 29 33 36 35 33 32 32 32 34 34 33 32 33 35 36 37
25 22 20 18 17 15 13 11 10 8 7 6 6 7 8 9 9 9 10 10 10 10 9 11 13 14 15 16 17 18 20 21 22 24 25 26 27 27 26 26 26 26 26 27 29 32 35 39 41 42 43 43 43 44 44 44 42 41 39 37 34 30 28 26 24 22 21 20 21 23 26 32 35 36 35 36 36 36 36 34 33 33 34 35 35
24 22 20 19 18 16 14 12 10 8 7 7 6 6 6 4 3 3 5 8 10 10 9 10 12 12 13 15 15 16 18 21 22 23 24 25 27 27 25 24 25 26 28 30 33 36 38 40 42 43 44 44 44 45 45 45 44 42 41 39 36 34 30 27 25 23 22 21 22 21 23 27 32 37 38 39 38 38 36 35 34 33 31 32 34
24 21 20 19 17 16 14 12 10 9 8 7 6 6 5 3 2 1 2 3 4 5 7 9 11 11 12 14 15 15 17 20 22 23 24 25 27 27 26 26 26 28 31 34 37 39 41 42 43 44 44 45 46 46 46 47 46 44 43 41 39 36 32 29 26 23 21 21 22 22 23 24 27 32 36 38 37 36 36 35 33 31 30 31 34
25 23 21 19 17 15 14 12 10 9 8 6 5 5 3 2 2 3 3 3 3 3 5 8 11 11 12 13 14 15 17 20 21 22 24 25 27 28 29 30 32 33 35 37 38 40 42 43 43 44 44 46 46 46 47 47 47 47 46 44 42 39 35 30 27 25 23 22 21 22 22 23 24 26 31 35 36 35 34 33 32 31 31 33 36
26 24 22 20 18 16 14 12 11 9 8 6 5 4 2 1 2 3 5 6 6 7 8 9 10 11 12 12 13 14 17 20 21 22 23 25 27 30 32 34 36 37 37 38 39 40 41 42 44 45 45 46 47 47 48 48 49 49 47 45 44 43 40 35 32 30 27 24 22 21 20 21 22 24 27 31 33 34 33 33 32 32 32 34 39
26 24 22 20 18 16 15 13 11 10 8 6 5 3 2 0 2 4 5 6 7 9 10 10 10 10 10 11 12 13 17 19 18 18 20 23 26 30 33 35 36 37 38 39 40 40 41 43 45 46 46 47 48 49 49 50 50 50 49 46 45 43 40 38 37 34 31 27 23 21 20 20 20 20 23 27 30 31 32 33 33 31 32 37 42
24 22 21 20 18 17 15 13 12 10 8 7 5 3 2 1 1 3 4 6 7 9 10 12 12 12 13 13 14 15 18 18 17 17 20 23 27 31 33 34 35 36 37 38 40 41 42 43 45 46 47 49 49 50 51 52 52 52 51 48 46 44 41 40 40 39 34 29 25 22 20 18 17 17 18 24 29 31 31 32 32 31 32 39 45
26 23 21 20 18 17 15 13 12 11 9 8 6 4 3 2 1 1 3 5 6 8 9 11 12 14 15 15 16 17 19 20 21 21 23 26 28 31 32 34 34 35 36 37 39 40 42 43 45 47 48 50 51 52 53 54 54 54 52 49 47 46 45 44 44 42 38 32 26 22 20 18 16 15 15 20 28 32 30 30 31 29 30 39 47
28 26 24 21 19 18 16 14 12 11 10 8 7 5 4 3 2 1 2 4 5 7 8 9 11 12 14 16 17 18 19 20 21 22 24 25 27 29 31 33 34 34 35 37 38 39 41 43 45 47 48 50 52 53 54 55 56 55 53 50 49 48 49 49 47 45 41 35 29 24 20 18 16 13 11 16 24 29 29 28 29 28 28 36 47
27 26 25 22 20 18 16 15 13 12 10 9 7 6 5 4 3 1 1 2 4 6 7 9 10 11 12 14 15 17 17 18 19 21 22 23 25 27 29 31 32 33 34 36 37 38 40 42 44 46 48 50 52 54 55 55 56 56 54 53 52 52 53 53 50 47 43 38 33 28 22 19 16 12 8 11 17 25 27 26 27 28 28 33 43
26 25 24 23 20 18 17 15 14 13 10 9 8 7 6 5 4 2 1 2 3 5 6 7 8 9 10 12 13 14 15 16 18 19 20 22 23 24 26 28 30 31 32 34 36 37 38 40 42 45 47 49 52 54 54 55 57 57 56 55 54 54 55 54 50 46 43 39 35 31 25 20 16 11 6 8 13 20 25 25 26 28 30 31 35
25 24 23 21 20 19 17 16 14 13 11 10 9 8 7 6 5 3 2 2 3 3 4 5 6 7 8 9 10 12 13 14 16 18 20 21 22 23 24 25 27 28 30 31 33 35 36 38 40 43 45 48 51 53 54 54 57 58 57 56 55 54 55 53 49 45 43 40 37 33 28 22 15 9 5 6 10 15 21 25 27 28 31 32 32
26 24 23 22 21 20 19 17 15 13 12 11 10 9 8 6 5 4 2 2 2 3 3 4 4 6 7 8 9 10 12 13 15 17 19 21 22 23 23 23 25 26 28 30 31 33 35 37 38 41 44 46 50 54 54 53 54 55 54 54 54 55 54 51 48 44 41 39 37 34 30 24 16 9 4 5 8 11 16 24 28 29 30 32 32
26 24 23 23 22 21 19 17 15 14 13 12 11 10 9 7 5 4 3 3 2 2 3 3 4 5 6 7 9 10 12 14 15 17 19 20 21 22 23 23 23 24 26 28 30 32 34 35 38 40 43 45 49 53 55 53 52 54 54 53 53 53 52 49 45 41 39 37 35 32 30 26 19 11 4 3 6 9 13 20 27 30 30 31 33
25 23 23 22 22 20 19 17 16 15 14 12 11 10 9 7 6 4 3 3 2 2 2 3 4 5 6 7 9 10 12 13 15 17 19 20 21 22 22 23 23 23 24 26 28 31 33 34 36 38 41 44 47 51 55 55 54 55 55 54 53 52 50 47 43 40 38 37 34 31 28 26 22 14 6 4 5 8 12 17 23 28 30 32 34
24 24 23 22 20 20 19 17 17 16 14 13 12 11 9 8 6 5 4 3 2 2 2 2 3 5 6 7 9 10 11 13 15 17 18 19 20 21 22 23 23 24 24 25 27 29 31 33 34 36 39 42 45 48 52 54 56 56 57 57 56 54 51 48 44 41 39 38 35 31 28 26 23 16 8 5 7 7 11 14 19 25 29 31 33
25 24 23 21 20 19 19 18 17 16 15 14 13 11 10 8 7 6 5 4 3 2 2 2 3 4 5 7 8 10 11 13 15 16 18 19 20 21 22 23 24 25 26 26 27 29 29 30 32 35 37 40 44 47 48 51 55 57 58 58 58 56 53 50 48 44 41 39 37 33 29 25 21 16 10 5 7 7 8 11 16 22 27 30 32
25 23 22 21 20 19 19 18 17 16 15 14 13 12 10 9 8 6 5 4 3 2 1 2 3 3 5 6 8 9 11 13 14 16 17 19 20 22 23 24 25 26 27 28 29 30 30 30 31 33 36 39 42 45 46 47 51 55 59 59 59 56 54 53 51 48 44 42 40 37 32 26 20 15 10 4 4 6 6 8 12 19 24 28 30
24 22 21 21 21 20 19 18 17 16 16 15 14 12 11 10 8 7 6 4 3 2 1 1 2 3 4 6 7 9 11 13 14 16 18 19 21 22 23 24 26 27 28 29 30 31 32 31 31 32 34 37 40 43 46 45 46 51 56 59 59 57 55 55 54 52 48 46 44 41 35 29 22 16 11 6 1 3 6 9 12 17 22 25 28
24 23 22 21 20 20 19 18 17 17 16 15 14 12 11 10 8 7 6 4 3 2 1 1 2 3 5 6 8 10 11 13 15 16 18 19 21 22 24 25 26 27 28 30 30 31 32 33 32 31 33 36 38 42 45 45 44 46 52 57 60 58 56 55 55 53 51 48 46 43 38 33 27 22 17 12 7 2 4 7 11 15 19 23 26
Wind_Direction
223 224 224 224 225 226 229 233 238 244 252 262 272 281 289 296 302 305 308 309 312 315 317 317 318 318 317 318 317 316 315 315 315 314 313 311 309 307 305 302 297 294 291 287 284 283 282 278 273 269 269 271 267 262 261 260 259 257 255 255 255 254 256 255 258 264 266 268 271 271 270 268 263 262 265 269 271 271 270 270 269 271 272 263 249
222 222 223 223 224 225 228 232 238 245 255 264 274 283 291 297 302 304 307 310 313 316 318 318 318 318 318 318 317 316 316 316 316 315 313 312 309 306 304 301 297 296 294 290 287 284 277 271 271 269 268 271 268 261 262 262 258 257 255 256 257 255 255 256 257 265 269 267 266 268 270 267 261 260 265 268 268 265 264 269 270 269 271 270 259
222 222 222 222 222 224 228 232 239 246 257 266 276 286 292 297 301 303 307 312 315 317 318 318 318 318 317 317 317 317 317 317 316 315 313 311 308 306 305 301 297 296 295 293 290 285 275 268 271 272 268 268 266 262 264 264 259 258 257 256 258 258 258 257 258 265 269 267 266 267 269 268 260 256 264 270 266 262 261 266 269 268 271 273 265
220 220 220 220 221 223 227 232 239 248 258 268 278 286 292 296 299 303 309 313 317 318 318 317 317 317 317 317 317 317 317 317 315 314 312 310 309 307 306 303 299 296 295 293 290 284 275 270 272 273 270 267 267 266 266 264 260 259 259 258 259 261 261 260 260 264 268 269 270 266 267 269 260 253 263 272 267 262 263 267 271 270 270 272 269
218 218 218 218 220 223 226 232 240 249 259 269 279 285 290 295 299 305 311 315 317 317 317 316 316 316 317 317 317 317 317 316 315 313 312 311 310 308 307 305 301 297 295 294 293 288 279 277 278 275 271 268 268 269 267 264 263 261 261 261 261 262 262 261 263 266 268 269 269 266 267 269 262 258 265 271 267 263 265 269 273 273 272 274 273
217 216 216 217 219 222 226 232 241 250 260 270 279 284 290 295 301 307 312 315 316 316 316 316 315 316 317 317 317 317 316 315 314 314 313 312 312 311 309 307 301 298 297 296 297 294 287 285 284 277 272 270 269 269 268 267 266 264 262 263 263 264 264 264 266 268 269 268 268 267 267 264 262 264 268 267 264 263 266 271 274 274 275 277 275
215 215 215 216 218 221 227 233 241 251 261 270 277 283 289 296 303 309 313 314 315 315 315 315 316 317 317 317 317 316 315 315 315 316 315 315 315 314 311 308 305 302 301 299 298 297 292 290 287 278 272 272 270 269 270 269 267 266 264 264 264 264 265 266 268 269 270 271 270 269 268 262 260 266 269 266 259 257 265 273 276 276 277 276 275
214 213 213 215 217 221 227 234 242 252 262 270 277 283 290 299 306 310 313 314 315 315 315 315 316 317 317 317 316 316 315 317 318 318 318 318 318 316 312 309 306 302 300 298 297 296 292 289 288 282 276 275 275 274 272 269 267 267 265 264 264 264 265 267 269 268 270 275 274 270 268 264 263 268 271 266 257 255 262 271 276 281 280 275 274
212 211 212 214 217 221 227 234 243 253 262 270 277 285 293 301 307 310 312 314 315 315 315 316 316 316 317 317 316 316 317 319 321 320 320 321 320 315 308 303 299 296 293 291 289 287 285 283 284 283 280 279 278 275 272 268 266 266 266 265 264 265 266 267 269 270 272 276 277 272 270 267 267 272 270 262 258 258 263 270 275 283 285 280 278
210 210 211 212 216 221 227 235 244 253 262 270 278 288 296 303 307 309 312 314 315 316 315 316 316 317 317 316 316 317 319 321 321 321 322 322 318 311 305 301 298 295 291 288 286 284 283 280 279 280 278 277 275 273 270 268 266 265 266 267 266 267 269 269 269 270 270 273 275 273 273 269 267 272 270 260 260 264 264 268 273 279 286 290 286
208 208 209 212 216 221 227 236 245 254 263 271 281 290 297 303 306 309 312 315 316 316 316 316 317 317 316 316 317 318 320 321 322 322 323 321 316 309 304 300 297 294 291 289 287 286 285 283 281 280 278 275 273 272 271 270 269 267 267 267 266 266 267 268 270 270 269 270 272 271 272 269 264 269 273 264 260 265 266 266 270 277 285 293 293
207 207 208 211 216 221 228 236 246 255 263 273 283 291 298 302 306 310 313 316 316 315 316 316 317 316 315 315 317 318 320 321 322 323 323 321 316 307 300 298 296 294 292 289 288 287 286 285 284 281 279 277 275 273 272 271 272 271 268 268 267 265 265 266 267 268 268 270 270 268 269 269 265 265 271 270 262 263 269 270 270 277 283 287 292
205 205 208 211 215 221 229 237 246 255 264 275 284 291 298 301 306 311 314 316 315 315 316 315 315 315 315 316 317 318 320 321 322 324 324 321 317 306 299 298 295 293 291 289 288 287 286 285 284 282 280 279 277 275 273 271 272 271 269 269 269 268 268 266 264 266 267 267 267 266 265 266 266 263 263 269 269 265 270 274 274 279 284 284 286
203 205 207 211 215 221 229 237 247 257 265 276 285 291 297 301 307 313 315 315 314 314 315 314 315 315 315 316 316 317 321 322 324 326 325 324 319 308 301 298 295 292 290 289 288 286 285 285 284 282 281 280 279 278 276 274 273 272 271 273 274 274 273 271 268 265 265 264 263 264 264 262 263 262 260 264 270 268 270 275 276 281 286 286 284
202 205 207 211 215 222 230 238 248 258 267 277 285 290 296 302 309 314 315 314 313 313 314 314 314 315 316 316 316 318 321 324 327 328 329 331 324 311 304 301 298 295 294 292 289 286 284 284 282 282 281 279 278 277 277 277 277 276 275 275 276 277 277 279 276 269 267 267 263 260 262 262 262 262 259 259 262 264 269 273 278 285 287 286 284
202 204 207 211 216 223 231 240 249 259 268 277 284 290 297 304 311 315 314 312 312 313 313 314 316 316 317 317 316 317 321 327 331 333 336 336 326 313 308 305 301 300 300 296 291 286 284 283 282 281 281 279 277 276 276 278 278 278 278 277 277 278 278 281 282 274 269 271 265 257 257 259 262 262 258 256 256 261 270 274 279 286 286 286 288
202 204 207 211 217 224 232 241 251 260 269 276 283 290 299 307 313 314 312 310 311 312 313 315 317 317 317 317 316 318 325 333 337 339 341 338 323 313 310 306 302 303 303 300 295 289 284 283 282 282 281 280 279 278 277 277 278 278 279 279 280 281 280 281 283 275 271 272 267 259 257 258 261 259 256 256 258 262 269 271 274 280 281 284 288
201 204 207 211 217 225 233 242 252 261 268 274 282 293 302 309 314 312 309 309 311 313 314 315 317 318 317 317 319 323 329 336 341 343 343 334 319 312 310 309 307 306 306 305 302 296 288 285 284 282 280 279 279 279 278 278 277 278 279 279 281 283 283 285 285 279 276 276 267 259 260 260 259 256 253 255 257 257 259 260 264 270 272 279 285
201 203 207 211 218 225 234 244 253 260 267 274 284 295 304 312 314 310 307 309 311 313 315 315 317 319 318 318 323 329 333 339 345 347 342 329 317 313 313 313 312 310 309 308 308 304 298 293 288 283 280 280 280 281 279 277 276 276 278 279 281 281 283 287 287 281 280 280 269 262 266 263 255 251 250 252 251 249 250 251 255 261 265 275 280
200 202 206 211 218 226 234 245 254 259 266 277 288 297 308 313 312 307 306 308 311 314 317 317 317 320 320 322 330 337 340 344 348 349 342 330 320 317 316 315 314 312 311 309 308 306 303 298 293 288 285 284 284 282 279 277 275 276 276 276 278 279 281 285 286 282 280 278 270 266 269 267 259 252 247 247 247 247 248 248 251 257 262 271 273
199 201 205 210 217 226 236 245 252 258 266 279 290 300 312 314 309 306 305 307 311 315 317 318 319 321 325 330 337 343 346 346 346 347 344 334 324 320 318 316 315 313 310 308 305 303 302 300 296 294 291 289 287 285 283 280 277 276 275 273 274 277 277 280 284 281 277 274 270 267 268 268 265 257 248 245 246 247 248 248 252 257 259 265 268
199 201 204 210 217 226 237 246 250 254 265 281 293 303 314 313 308 305 305 307 312 316 319 320 320 322 330 339 343 345 348 347 345 345 343 333 324 321 319 316 315 313 310 307 305 303 303 302 300 299 297 294 291 288 285 283 280 276 274 273 273 275 275 277 280 277 269 265 265 264 264 262 260 256 249 246 246 246 248 250 254 258 259 262 267
199 202 204 208 218 227 236 245 247 252 266 283 295 305 313 312 306 304 305 309 313 318 321 322 323 328 336 345 347 345 345 347 347 345 338 328 323 323 320 317 317 316 311 307 307 306 306 306 305 305 303 300 296 292 286 283 279 276 275 274 274 276 276 276 278 276 266 258 256 256 256 253 252 251 248 247 246 246 250 253 255 259 262 264 266
199 203 205 208 218 227 233 239 244 253 269 285 297 307 312 309 304 302 305 310 316 322 325 325 329 335 340 344 346 345 344 347 349 344 335 327 325 325 321 319 320 318 313 310 310 310 309 310 311 312 310 307 305 300 291 283 277 274 275 275 274 275 276 274 274 274 267 257 253 252 252 249 248 247 246 248 249 249 253 258 260 263 265 264 267
200 204 207 211 218 223 229 235 240 252 271 287 298 306 309 306 302 301 306 313 319 325 326 329 336 340 340 340 342 344 346 347 345 341 335 329 328 328 323 322 325 324 318 314 314 314 314 316 318 318 316 315 314 312 305 298 291 285 283 283 279 278 277 273 269 269 264 257 252 251 252 250 248 249 250 250 251 252 255 259 260 262 265 265 267
201 204 208 213 216 219 226 232 235 248 270 285 295 302 305 303 299 299 308 317 323 326 329 336 342 341 338 337 339 342 346 346 340 338 337 334 333 331 327 327 331 330 324 320 320 320 320 323 325 323 323 323 322 320 316 311 306 299 294 293 289 285 282 274 266 260 256 255 253 251 252 251 247 251 254 252 253 254 254 256 257 258 263 264 265
202 205 207 210 213 217 223 227 229 244 267 282 292 299 303 301 298 301 312 320 325 330 335 341 342 338 336 336 336 340 344 341 337 339 340 338 336 334 331 332 335 335 331 328 327 326 326 329 330 330 332 331 326 322 318 311 309 306 300 294 292 291 288 281 274 262 251 250 251 249 250 251 249 252 254 252 254 255 252 253 254 254 260 262 261
201 204 206 207 210 216 220 219 222 240 265 280 291 298 300 299 298 305 317 326 331 336 341 341 337 334 335 334 333 338 342 339 338 341 341 338 338 336 334 335 337 337 336 333 328 329 333 337 340 344 346 344 339 337 334 328 322 318 312 304 298 296 294 291 286 272 254 248 251 249 248 251 251 251 251 249 251 253 249 249 251 252 256 257 256
199 202 203 204 209 213 213 210 210 228 256 272 281 291 295 295 299 310 323 333 338 339 338 335 331 331 332 332 334 339 340 338 338 340 339 339 340 338 336 337 338 339 338 334 332 339 347 353 356 359 360 358 355 353 349 345 338 330 323 317 310 305 303 302 297 281 261 251 250 249 249 250 250 249 249 247 248 251 248 246 247 249 251 251 251
199 199 200 202 207 207 204 201 203 216 246 267 274 282 287 289 296 313 328 336 338 336 332 328 327 327 326 328 334 340 338 335 337 339 340 341 342 341 340 339 340 341 341 340 343 353 0 5 6 7 5 3 2 360 357 354 349 342 334 329 324 318 313 307 301 291 275 261 254 251 249 249 249 248 247 245 246 248 247 246 246 247 248 248 247
199 197 198 201 202 200 198 196 197 208 231 253 269 283 290 296 306 320 332 337 337 331 326 324 325 325 323 324 331 339 341 339 340 342 344 345 346 346 346 346 347 350 350 351 357 5 10 11 10 9 7 5 3 2 0 358 354 350 344 337 332 327 321 313 303 293 283 273 265 257 248 243 243 244 244 243 245 248 251 251 250 249 248 245 243
199 197 197 198 195 194 194 192 191 204 218 225 241 270 287 303 320 327 328 330 329 325 324 324 325 326 326 324 329 340 346 347 348 349 351 353 353 353 353 354 357 357 357 360 7 13 16 15 12 9 7 5 3 2 0 358 356 354 350 344 338 333 328 319 310 300 288 279 275 269 258 249 245 245 246 248 249 251 253 252 249 248 245 241 237
198 198 195 193 191 189 189 188 188 198 211 217 230 252 266 279 303 304 300 310 317 320 327 330 330 330 331 329 332 344 351 352 353 356 357 358 358 357 357 2 7 7 7 11 16 19 19 17 14 11 8 5 3 2 359 358 357 355 352 348 343 339 334 327 318 307 295 284 276 271 266 260 255 253 252 252 252 251 250 249 247 246 243 237 232
193 195 192 189 188 186 183 183 187 195 203 211 229 250 256 258 266 243 237 269 291 299 312 324 332 339 340 337 338 348 357 358 358 1 3 3 2 360 360 5 11 14 17 21 22 21 19 17 15 13 10 7 5 2 359 358 357 356 353 351 347 344 341 336 328 317 303 291 280 271 266 263 262 260 256 253 252 250 248 249 248 243 237 232 226
186 187 185 183 184 182 179 180 184 192 201 206 224 246 253 263 301 326 335 331 332 332 329 336 344 348 349 348 347 354 3 4 2 5 8 7 5 3 4 9 13 15 18 21 23 22 19 17 15 13 11 8 6 4 0 359 358 357 355 352 349 348 347 344 338 330 318 305 291 281 271 262 260 260 257 253 251 249 248 248 243 237 233 228 219
186 184 181 181 181 178 176 179 182 188 195 200 217 237 247 289 326 343 347 343 348 353 355 358 358 355 355 354 350 358 10 10 5 7 12 12 11 11 13 15 16 18 19 20 21 22 21 18 16 15 13 10 8 6 3 360 358 358 356 353 350 350 350 347 343 338 330 318 303 293 283 270 262 259 257 255 252 249 247 244 237 233 231 223 214
185 182 179 178 178 175 174 177 182 185 187 192 207 214 205 316 348 354 349 345 349 351 353 359 360 358 1 357 351 4 18 16 8 9 13 15 17 19 20 20 19 19 20 20 20 20 21 19 17 16 14 12 9 7 5 2 359 359 358 356 352 349 347 345 344 343 338 328 315 303 293 283 273 263 256 255 252 245 239 236 232 229 227 219 210
179 178 177 175 174 174 174 177 181 182 181 186 193 185 161 114 23 1 346 348 352 350 352 355 354 354 2 1 358 10 19 13 4 9 15 18 21 24 23 23 21 20 20 21 21 20 21 20 18 18 16 14 11 9 7 4 1 359 359 356 353 349 345 343 345 347 344 337 327 314 301 292 284 270 258 253 247 237 230 227 225 223 220 214 206
173 172 174 174 173 172 173 177 180 179 178 181 178 162 146 127 77 17 347 351 354 352 354 356 352 353 358 357 359 10 16 8 5 11 17 20 24 24 23 22 21 19 19 21 22 22 21 20 19 20 19 16 13 11 9 5 2 0 360 357 352 349 346 346 347 349 348 344 337 325 310 300 293 279 260 246 238 230 223 221 220 217 213 208 202
174 172 172 173 173 171 172 176 178 177 176 173 165 154 144 137 127 89 360 356 355 354 356 356 354 355 355 354 359 6 8 4 4 9 14 17 21 23 22 21 19 18 18 19 21 22 21 21 20 20 20 17 14 13 11 7 3 2 2 359 354 350 349 349 350 351 351 349 344 335 321 309 303 289 258 235 228 224 221 218 217 216 212 205 199
175 173 171 170 170 171 174 175 175 175 172 165 157 153 148 144 142 123 49 7 356 356 358 356 356 356 355 355 358 0 358 357 0 5 10 14 17 20 21 20 18 17 17 17 19 20 21 21 21 21 20 18 16 15 13 9 7 6 5 2 358 354 352 352 352 353 352 349 345 341 332 319 311 299 260 222 216 218 219 219 216 216 214 205 198
174 172 170 169 169 171 174 174 173 171 167 160 157 155 152 148 142 128 89 34 10 3 359 356 355 355 354 354 355 353 351 352 356 1 6 10 13 16 18 18 17 16 16 17 18 19 19 20 21 21 21 19 17 16 14 11 9 8 7 4 0 357 355 355 354 354 352 349 344 342 339 329 317 301 258 209 203 210 215 217 216 215 213 207 199
172 170 168 168 169 171 172 173 171 168 162 161 160 157 153 148 140 129 104 63 38 17 5 360 357 355 355 353 350 349 349 351 354 360 5 9 11 13 15 15 15 15 15 16 18 18 19 20 21 21 21 20 17 16 16 13 8 6 6 5 1 357 356 356 356 354 352 349 345 343 342 339 326 303 252 193 189 202 212 216 214 211 209 207 202
170 169 169 169 170 171 170 169 169 165 162 162 161 157 152 147 140 133 111 79 59 35 20 13 3 360 1 357 352 351 353 355 359 3 6 9 11 11 11 12 13 14 14 14 16 17 18 20 21 22 22 22 20 19 19 15 9 6 6 5 2 359 358 358 358 356 353 349 345 343 343 344 337 318 269 191 181 193 209 215 213 208 205 204 202
171 171 171 170 170 170 169 167 166 164 163 163 161 158 152 146 141 138 120 96 79 52 36 26 14 10 9 3 1 2 2 2 5 7 9 11 12 11 11 12 12 12 11 12 13 15 17 20 22 22 22 22 21 21 21 18 12 9 9 7 3 0 359 359 360 359 357 354 350 347 346 348 347 338 309 218 187 190 206 216 213 206 202 201 200
171 171 172 172 170 168 168 167 165 164 164 163 161 158 154 148 145 141 129 113 96 68 48 30 20 17 12 6 6 8 7 7 10 11 12 14 13 11 11 12 12 12 11 10 10 12 16 20 22 23 23 23 22 21 21 18 13 10 10 10 6 3 2 2 3 4 4 2 359 355 352 352 352 347 325 263 224 204 206 216 215 208 202 200 200
171 172 172 171 169 168 168 167 165 164 164 163 161 158 154 151 149 147 139 129 116 88 61 40 26 20 13 10 10 9 10 12 14 15 16 16 14 13 13 13 14 15 14 11 9 10 12 16 20 22 24 24 23 22 21 18 14 11 12 11 9 7 6 6 8 9 9 9 8 5 2 0 357 352 334 280 251 225 208 212 217 212 204 201 201
173 173 171 170 170 170 169 167 166 165 165 164 163 161 157 155 155 154 147 138 128 107 72 45 31 19 11 10 11 11 13 15 16 16 17 17 15 16 16 15 15 15 15 13 11 9 9 12 16 19 22 26 26 24 21 17 13 12 13 12 11 10 9 10 11 13 14 14 14 13 11 9 4 358 347 300 261 242 218 214 220 217 209 204 202
174 173 171 170 170 170 169 167 166 166 165 165 165 163 160 159 161 159 153 148 142 128 84 42 28 17 10 10 11 11 13 16 16 17 18 16 15 16 16 16 16 15 14 14 12 10 8 9 11 14 20 26 27 27 24 17 11 10 12 13 12 12 12 12 13 15 16 19 20 19 17 16 13 10 7 343 267 246 228 218 221 221 215 209 205
173 172 172 171 171 170 169 168 167 167 168 169 168 166 164 164 165 164 160 156 152 146 116 42 23 11 8 11 12 11 12 13 13 14 15 14 13 14 14 14 15 14 14 14 13 10 8 9 9 11 17 23 27 29 28 20 11 8 10 12 13 13 14 14 14 15 18 22 24 23 21 20 20 21 24 30 18 226 219 213 214 217 217 214 210
172 171 172 174 173 172 170 169 168 169 171 171 170 170 169 169 168 169 168 162 156 155 141 22 6 1 4 9 11 11 10 10 10 10 11 11 10 10 10 11 12 12 12 13 13 11 9 8 8 9 14 19 25 30 29 21 13 9 10 11 13 14 15 16 16 16 18 23 26 26 25 25 28 30 34 41 54 94 186 202 206 208 211 213 213